Location: Bermeries
(50.2863°N, 3.7551°E)
Time: 02:18:20
(UTC+00:00)

CZ-2D R/B - Pass Details

Date: 23 May 2024
Orbit: 790 x 843 km, 98.8° (Epoch: 21 June)

Event Time Altitude Azimuth Distance (km) Brightness Sun altitude
Rises 00:10:51 0° 30° (NNE) 3,412 6.6 -18.8°
Reaches altitude 10° 00:14:38 10° 56° (ENE) 2,466 5.2 -18.7°
Maximum altitude 00:17:14 13° 85° (E) 2,220 4.5 -18.6°
Drops below altitude 10° 00:19:49 10° 114° (ESE) 2,448 4.5 -18.6°
Enters shadow 00:21:27 - 128° (SE) 2,792 4.6 -18.5°
